User: anonymous   Login
Location: Brainerd
(46.3580°N, 94.2010°W)
Time: 00:06:12
(UTC-06:00)
Language:

CZ-4C R/B - Orbit

View from above orbital plane
View from above orbital plane
View from above satellite
View from above satellite

Ground track
Ground track

The orbit data is extracted from the following two-line orbital elements,

1 32290U 07055B   17323.86979819  .00003005  00000-0  83801-4 0  9998
2 32290  97.5416  73.7440 0064085 297.6679  61.8069 15.35573727555701
Epoch (UTC): 19 November 2017 20:52:30
Eccentricity: 0.0064085
inclination: 97.5416°
perigee height: 415 km
apogee height: 503 km
right ascension of ascending node: 73.7440°
argument of perigee: 297.6679°
revolutions per day: 15.35573727
mean anomaly at epoch: 61.8069°
orbit number at epoch: 55570

The dashed part of the orbit path shows where the satellite is in the earth's shadow,  

DLR